Погода в Киренске

Россия / Иркутская область     57°46′32″N   108°06′38″E
темп.,
°C
ветер,
м/с
пор.,
м/с
влажн.,
%
обл.,
%
осадки,
мм/ч
давл.,
гПа
погр.,
м
17 июня, чт
чт1723:00+12с227766 0.1 101131
02:00+9с229249 0.4 101223
05:00+9ссз1191100 0.0 101216
08:00+15ссз136695 0.0 1012353
11:00+20ссз3535100 0.1 10102630
14:00+20ссз453843 0.1 10091949
17:00+21с553894 0.0 10092276
20:00+15ссз377071 0.3 1010378
18 июня, пт
пт1823:00+10сз1190100 0.0 101014
02:00+9зсз119554 0.0 100910
05:00+10зсз1188100 0.0 100930
08:00+16с3659100 0.0 1008572
11:00+21ссв463898 0.0 10062396
14:00+21ссз3640100 0.0 10041462
17:00+23с473560 0.0 10042378
20:00+15св377788 0.1 1006263
19 июня, сб
сб1923:00+12св1190100 0.0 100612
02:00+12сз118998 0.0 100627
05:00+12св1189100 0.0 100755
08:00+13с1285100 0.0 1007190
11:00+14в1178100 0.0 1006394
14:00+20юз115369 0.0 10051038
17:00+23ссв024191 0.0 10041626
20:00+19вюв1158100 0.0 100323
20 июня, вс
вс2023:00+13юв0178100 0.0 100410
02:00+11всв1185100 0.0 100510
05:00+11в11835 0.0 100510
08:00+19юв135218 0.0 1005407
11:00+25ююв343114 0.0 10042010
14:00+26ю352693 0.0 10033185
17:00+23зюз4743100 0.0 10051373
20:00+20юв235979 0.0 100581
21 июня, пн
пн2123:00+15вюв117283 0.0 100611
02:00+15ю116985 0.0 100614
05:00+15в227996 0.2 100740
08:00+19ююв136770 0.3 1007381
11:00+24ю45458 0.0 10071537
14:00+25ю3443100 0.1 10061586
17:00+20всв116297 0.1 100737
20:00+17вюв118393 0.3 100853